Location: Gouvernes
(48.8601°N, 2.6907°E)
Time: 22:41:27
(UTC+00:00)

deb Chang Zheng 4 - Pass Details

Date: 16 October 2021
Orbit: 595 x 616 km, 98.6° (Epoch: 07 December)

Event Time Altitude Azimuth Distance (km) Brightness Sun altitude
Rises 17:32:27 0° 163° (SSE) 2,823 6.8 -6.5°
Reaches altitude 10° 17:34:36 10° 163° (SSE) 1,926 6.0 -6.9°
Maximum altitude 17:38:47 88° 78° (ENE) 604 3.5 -7.6°
Drops below altitude 10° 17:43:01 10° 346° (NNW) 1,948 6.2 -8.2°
Sets 17:45:12 0° 346° (NNW) 2,858 7.1 -8.6°
